Weather in Shklov

Belarus     54˚12′30″N   30˚17′28″E
temp.,
°C
wind,
m/s
gust,
m/s
humid.,
%
clouds,
%
prec.,
mm/h
press.,
hPa
HPBL,
m
30 november, mon
mon3000:00−1˚sse379599 0.1 1021233
03:00−1˚se479799 0.1 1022345
06:00−3˚sse379781 0.0 1022221
09:00−4˚sse379567 0.0 1022201
12:00−2˚ssw469256 0.0 1023492
15:00−1˚ssw478578 0.1 1024688
18:00−1˚s4890100 0.1 1024430
21:00−1˚ssw4788100 0.1 1025404
1 december, tue
tue100:00−2˚ssw369598 0.1 1026283
03:00−3˚ssw359688 0.1 1027136
06:00−4˚ssw349647 0.0 1027118
09:00−4˚ssw249627 0.0 102893
12:00−2˚ssw23900 0.0 1029216
15:00−2˚s22890 0.0 1030247
18:00−3˚sse12930 0.0 103021
21:00−4˚se22920 0.0 103223
2 december, wed
wed200:00−4˚ese22890 0.0 103222
03:00−4˚ene22900 0.0 103329
06:00−5˚e33910 0.0 103267
09:00−4˚e35968 0.0 103293
12:00−1˚e369578 0.0 1031331
15:00e469188 0.1 1030493
18:00−2˚ese478799 0.0 1030474
21:00−3˚ese4893100 0.0 1029369
3 december, thu
thu300:00−3˚ese4894100 0.1 1029395
03:00−3˚se489499 0.2 1028442
06:00−3˚se4896100 0.1 1028391
09:00−3˚se499592 0.3 1028371
12:00−2˚se589291 0.1 1028453
15:00−2˚sse579095 0.2 1027524
18:00−2˚sse5792100 0.1 1027570
21:00−2˚se5892100 0.1 1026549
4 december, fri
fri400:00−2˚sse4893100 0.0 1026461
03:00−1˚se4796100 0.1 1025335
06:00−1˚se61094100 0.1 1024412
09:00se61195100 0.3 1025507
12:00se61296100 0.1 1025570
15:00+1˚se61295100 0.1 1024531
18:00se61292100 0.0 1024513
21:00−1˚se71195100 0.0 1025549